IRIDIUM 63 [-]

Last updated on Wed Jun 28 2023 00:03:02 GMT+0000 (Coordinated Universal Time)

1 25286U 98021B 23178.05094460 .00000443 00000+0 14769-3 0 9992 2 25286 86.3990 24.1469 0002399 87.8354 272.3117 14.35336748320635

Satellite not in orbit

IRIDIUM 63 [-]